Regional Weather Roundup
Issued by NWS Kansas City/Pleasant Hill, MO

Home | Current Version | Previous Version | Graphics & Text | Print | Product List | Glossary Off
Versions: 1 2 3 4 5 6 7 8 9 10 11 12 13 14 15 16 17 18 19 20 21 22 23 24 25 26 27 28 29 30 31 32 33 34 35 36 37 38 39 40 41 42 43 44 45 46 47 48 49 50

000
ASUS43 KEAX 261710
RWREAX

WEATHER ROUNDUP FOR EASTERN KANSAS AND NORTHWEST MISSOURI
NATIONAL WEATHER SERVICE KANSAS CITY/PLEASANT HILL MO
1100 AM CST SUN FEB 26 2017

KSZ040-057-103>105-MOZ028-029-037-043-261800-
...KANSAS CITY METROPOLITAN AREA...

CITY           SKY/WX    TMP DP  RH WIND       PRES   REMARKS
K.C. INTL      CLOUDY    43  32  65 SW8       30.03S
K.C. DOWNTOWN  CLOUDY    40  35  83 SW3       30.04F
LEES SUMMIT    CLOUDY    40  33  76 S7        30.04F
OLATHE - IXD   PTSUNNY   42  29  59 VRB5      30.03F
OLATHE - OJC   PTSUNNY   41  31  67 VRB3      30.03F
LAWRENCE       CLOUDY    41  35  79 E6        30.02F

$$

MOZ001>008-011>017-020>025-030>033-038>040-044>046-053-054-261800-
...NORTHERN AND CENTRAL MISSOURI...

CITY           SKY/WX    TMP DP  RH WIND       PRES   REMARKS
ST. JOSEPH     PTSUNNY   45  34  65 SW13      30.02F
MOSBY          PTSUNNY   43  32  65 SW9       30.04F
WARRENSBURG    CLOUDY    41  28  60 SE3       30.06F
WHITEMAN AFB   CLOUDY    41  30  63 S6        30.05S
CLINTON        CLOUDY    43  19  39 SE6       30.07S
SEDALIA        CLOUDY    43  24  47 SW5       30.08R
WARSAW         NOT AVBL
CHILLICOTHE      N/A     44  30  57 S14       30.04R
KIRKSVILLE     SUNNY     46  23  40 SW15G25   30.01F

$$

MOZ041-047>049-056>058-063>065-088>090-097-261800-
...EASTERN AND SOUTHERN MISSOURI...

CITY           SKY/WX    TMP DP  RH WIND       PRES   REMARKS
ST. LOUIS INTL CLOUDY    41  13  31 S13G21    30.14R WCI  34
SPIRIT OF STL  CLOUDY    40  14  34 S10G21    30.14R WCI  33
COLUMBIA       CLOUDY    41  18  39 S7        30.09R
JEFFERSON CITY CLOUDY    41  17  38 CALM      30.11S
ROLLA          CLOUDY    42  16  34 S14       30.09S WCI  35
OSAGE BEACH    CLOUDY    43  18  36 S12       30.10R
SPRINGFIELD    LGT SNOW  35  31  85 S10       30.09R FOG     WCI  27
BRANSON        CLOUDY    43  23  45 SE9       30.09S
JOPLIN         LGT RAIN  39  36  89 S12       30.07F WCI  32
WEST PLAINS    CLOUDY    42  19  39 S10       30.13F

$$

IAZ060-094-KSZ022-034>040-054-083-096-NEZ052-066-093-261800-
...KANSAS...SOUTHEAST NEBRASKA AND IOWA...

CITY           SKY/WX    TMP DP  RH WIND       PRES   REMARKS
TOPEKA         CLOUDY    43  32  65 SE8       30.02S
MANHATTAN      SUNNY     47  28  47 VRB7      29.99F
EMPORIA        CLOUDY    40  31  70 SE8       29.99F WCI  34
CHANUTE        CLOUDY    46  31  55 S18       30.02R
WICHITA        CLOUDY    42  25  50 S6        29.96S
OMAHA          SUNNY     38  19  46 W7        29.96R WCI  33
LINCOLN        SUNNY     38  20  48 W8        29.98R WCI  32
FALLS CITY     SUNNY     47  34  60 S15       29.97S
LAMONI         MOSUNNY   44  27  51 SW23      29.96R
DES MOINES     MOSUNNY   43  25  49 W20       29.92S WCI  34

$$




USA.gov is the U.S. government's official web portal to all federal, state and local government web resources and services.